Weather History for KVQQ - May, 2013

Change the Weather History Date:

Thursday, May 30, 2013

  Actual Average (KJAX) Record (KJAX)
Temperature  
Mean Temperature 75 °F 77 °F  
Max Temperature 84 °F 88 °F 97 °F (1945)
Min Temperature 66 °F 67 °F 51 °F (1971)
Degree Days  
Heating Degree Days 0 0  
Month to date heating degree days 3  
Since 1 July heating degree days 1347  
Cooling Degree Days 10 12  
Month to date cooling degree days 275  
Year to date cooling degree days 471  
Growing Degree Days 25 (Base 50)    
Moisture  
Dew Point 70 °F    
Average Humidity 88    
Maximum Humidity 100    
Minimum Humidity 37    
Precipitation  
Precipitation 0.00 in 0.12 in 1.82 in (1952)
Month to date precipitation 2.35  
Year to date precipitation 15.43  
Snow  
Snow 0.00 in 0.00 in 0.00 in (2002)
Month to date snowfall 0.0  
Since 1 July snowfall T  
Snow Depth -    
Sea Level Pressure  
Sea Level Pressure 30.15 in    
Wind  
Wind Speed 3 mph (East)    
Max Wind Speed 21 mph    
Max Gust Speed 23 mph    
Visibility 8 miles    
Events Rain    
T = Trace of Precipitation, MM = Missing Value Source: NWS Daily Summary

Daily Weather History Graph

Daily Weather History Graph

Search for Another Location

Airport or City:

Trip Planner

Search our weather history database for the weather conditions in past years. The results will help you decide how hot, cold, wet, or windy it might be!

Date:

Astronomy

May. 30, 2013 Rise Set
Actual Time 6:26 AM EDT 8:23 PM EDT
Civil Twilight 5:59 AM EDT 8:50 PM EDT
Nautical Twilight 5:27 AM EDT 9:23 PM EDT
Astronomical Twilight 4:52 AM EDT 9:58 PM EDT
Moon 12:38 AM EDT (5/30) 12:17 PM EDT (5/30)
Length of Visible Light 14h 50m
Length of Day
13h 56m
Waning Gibbous, 62% of the Moon is Illuminated
May 30
Waning Gibbous
May 31
Last Quarter
Jun 8
New
Jun 16
First Quarter
Jun 23
Full

Hourly Weather History & Observations

Time (EDT) Temp. Heat Index Dew Point Humidity Pressure Visibility Wind Dir Wind Speed Gust Speed Precip Events Conditions
12:15 AM 73.4 °F - 71.6 °F 94% 30.16 in 10.0 mi Calm Calm - N/A   Clear
12:35 AM 73.4 °F - 71.6 °F 94% 30.15 in 10.0 mi Calm Calm - N/A   Clear
12:55 AM 73.4 °F - 71.6 °F 94% 30.15 in 10.0 mi Calm Calm - N/A   Clear
1:15 AM 73.4 °F - 71.6 °F 94% 30.15 in 10.0 mi Calm Calm - N/A   Clear
1:35 AM 73.4 °F - 71.6 °F 94% 30.15 in 10.0 mi Calm Calm - N/A   Clear
1:55 AM 73.4 °F - 71.6 °F 94% 30.14 in 9.0 mi Calm Calm - N/A   Partly Cloudy
2:15 AM 73.4 °F - 71.6 °F 94% 30.13 in 10.0 mi Calm Calm - N/A   Scattered Clouds
2:35 AM 71.6 °F - 71.6 °F 100% 30.12 in 9.0 mi Calm Calm - N/A   Scattered Clouds
2:55 AM 71.6 °F - 71.6 °F 100% 30.13 in 7.0 mi Calm Calm - N/A   Mostly Cloudy
3:15 AM 71.6 °F - 71.6 °F 100% 30.12 in 5.0 mi Calm Calm - N/A   Partly Cloudy
3:35 AM 71.6 °F - 71.6 °F 100% 30.12 in 7.0 mi Calm Calm - N/A   Clear
3:55 AM 69.8 °F - 69.8 °F 100% 30.12 in 5.0 mi Calm Calm - N/A   Clear
4:15 AM 68.0 °F - 68.0 °F 100% 30.12 in 3.0 mi Calm Calm - N/A   Clear
4:35 AM 68.0 °F - 68.0 °F 100% 30.13 in 5.0 mi Calm Calm - N/A   Clear
4:55 AM 68.0 °F - 68.0 °F 100% 30.13 in 0.8 mi Calm Calm - N/A   Mist
5:15 AM 68.0 °F - 68.0 °F 100% 30.13 in 1.0 mi Calm Calm - N/A   Clear
5:35 AM 66.2 °F - 66.2 °F 100% 30.14 in 5.0 mi Calm Calm - N/A   Clear
5:55 AM 66.2 °F - 66.2 °F 100% 30.15 in 0.8 mi Calm Calm - N/A   Mist
6:15 AM 66.2 °F - 66.2 °F 100% 30.15 in 0.8 mi Calm Calm - N/A   Mist
6:35 AM 68.0 °F - 68.0 °F 100% 30.16 in 3.0 mi Calm Calm - N/A   Clear
6:50 AM 68.0 °F - 68.0 °F 100% 30.16 in 10.0 mi Calm Calm - N/A   Clear
7:50 AM 73.4 °F - 73.4 °F 100% 30.18 in 10.0 mi East 5.8 mph - N/A   Clear
8:50 AM 77.0 °F - 73.4 °F 89% 30.19 in 10.0 mi East 11.5 mph - N/A   Scattered Clouds
9:50 AM 80.6 °F 84.6 °F 71.6 °F 74% 30.18 in 10.0 mi East 13.8 mph - N/A   Scattered Clouds
10:50 AM 82.4 °F 86.3 °F 69.8 °F 66% 30.18 in 10.0 mi East 9.2 mph 23.0 mph N/A   Mostly Cloudy
11:50 AM 82.4 °F 85.4 °F 68.0 °F 62% 30.17 in 10.0 mi ESE 13.8 mph 20.7 mph N/A   Mostly Cloudy
12:50 PM 84.2 °F 88.4 °F 69.8 °F 62% 30.16 in 10.0 mi East 16.1 mph - N/A   Scattered Clouds
1:50 PM 84.2 °F 87.3 °F 68.0 °F 58% 30.15 in 10.0 mi ESE 13.8 mph - N/A   Mostly Cloudy
2:50 PM 84.2 °F 89.6 °F 71.6 °F 66% 30.13 in 10.0 mi East 17.3 mph - N/A   Scattered Clouds
3:50 PM 75.2 °F - 71.6 °F 89% 30.13 in 10.0 mi ESE 20.7 mph - N/A Rain Light Rain
5:50 PM 80.6 °F - 51.8 °F 37% 30.11 in 10.0 mi ESE 11.5 mph - N/A   Scattered Clouds
6:50 PM 80.6 °F 84.6 °F 71.6 °F 74% 30.12 in 10.0 mi East 5.8 mph - N/A   Scattered Clouds
7:50 PM 77.0 °F - 69.8 °F 78% 30.13 in 10.0 mi East 11.5 mph - N/A   Partly Cloudy
8:15 PM 77.0 °F - 71.6 °F 83% 30.13 in 10.0 mi East 4.6 mph - N/A   Clear
8:35 PM 77.0 °F - 71.6 °F 83% 30.13 in 10.0 mi East 4.6 mph - N/A   Partly Cloudy
8:55 PM 77.0 °F - 71.6 °F 83% 30.14 in 10.0 mi East 3.5 mph - N/A   Scattered Clouds
9:15 PM 75.2 °F - 71.6 °F 89% 30.14 in 10.0 mi East 3.5 mph - N/A   Scattered Clouds
9:35 PM 75.2 °F - 71.6 °F 89% 30.15 in 10.0 mi Calm Calm - N/A   Mostly Cloudy
9:55 PM 75.2 °F - 71.6 °F 89% 30.15 in 10.0 mi East 4.6 mph - N/A   Scattered Clouds
10:15 PM 75.2 °F - 71.6 °F 89% 30.15 in 10.0 mi Calm Calm - N/A   Partly Cloudy
10:35 PM 75.2 °F - 71.6 °F 89% 30.16 in 10.0 mi SE 4.6 mph - N/A   Scattered Clouds
10:55 PM 75.2 °F - 71.6 °F 89% 30.16 in 10.0 mi ESE 4.6 mph - N/A   Partly Cloudy
11:15 PM 75.2 °F - 71.6 °F 89% 30.17 in 10.0 mi Calm Calm - N/A   Clear
11:35 PM 75.2 °F - 71.6 °F 89% 30.17 in 10.0 mi Calm Calm - N/A   Clear
11:55 PM 73.4 °F - 71.6 °F 94% 30.17 in 9.0 mi East 4.6 mph - N/A   Clear